SCP
0 0 0 0 0 0 0 0 0 0 0 0 0 0 0 0 0 0 0 0 0 0 0 0 0 0 0 0 0 0 0 0 0 0 0 0 0 0 0 0 0 0 0 0 0 0 0 0 0
0 0 0 0 0 0 0 0 0 0 0 0 0 0 0 0 0 0 0 0 0 0 0 0 0 0 0 0 0 0 0 0 0 0 0 0 0 0 0 0 0 0 0 0 0 0 0 0 0
0 0 0 0 0 0 0 0 0 0 0 0 0 0 0 0 0 0 0 0 0 0 0 0 0 0 0 0 0 0 0 0 0 0 0 0 0 0 0 0 0 0 0 0 0 0 0 0 0
0 0 0 0 0 0 0 0 0 0 0 0 0 0 0 0 0 0 0 0 0 0 0 0 0 1 1 1 1 0 0 0 0 0 0 0 0 0 0 0 0 0 0 0 0 0 0 0 0
0 0 0 0 0 0 0 0 0 0 0 0 0 0 0 0 0 0 0 0 0 0 0 0 1 1 1 1 1 0 0 0 0 0 0 0 0 0 0 0 0 0 0 0 0 0 0 0 0
0 0 0 0 0 0 0 0 0 0 0 0 0 0 0 0 0 0 0 0 0 0 0 0 1 1 1 1 1 0 0 0 0 0 0 0 0 0 0 0 0 0 0 0 0 0 0 0 0
0 0 0 0 0 0 0 0 0 0 0 0 0 0 0 0 0 0 0 0 0 0 0 0 0 0 0 0 0 0 0 0 0 0 0 0 0 0 0 0 0 0 0 0 0 0 0 0 0
0 0 0 0 0 0 0 0 0 0 0 0 0 0 0 0 0 0 0 0 0 0 0 0 0 0 0 0 0 0 0 0 0 0 0 0 0 0 0 0 0 0 0 0 0 0 0 0 0
0 0 0 0 0 0 0 0 0 0 0 0 0 0 0 0 0 0 0 0 0 0 0 0 0 0 0 0 0 0 0 0 0 0 0 0 0 0 0 0 0 0 0 0 0 0 0 0 0
0 0 0 0 0 0 0 0 0 0 0 0 0 0 0 0 0 0 0 0 0 0 0 0 0 0 0 0 0 0 0 0 0 0 0 0 0 0 0 0 0 0 0 0 0 0 0 0 0
0 0 0 0 0 0 0 0 0 0 0 0 0 0 0 0 0 0 0 0 0 0 0 0 0 0 0 0 0 0 0 0 0 0 0 0 0 0 0 0 0 0 0 0 0 0 0 0 0
0 0 0 0 0 0 0 0 0 0 0 0 0 0 0 0 0 0 0 0 0 0 0 0 0 0 0 0 0 0 0 0 0 0 0 0 0 0 0 0 0 0 0 0 0 0 0 0 0
0 0 0 0 0 0 0 0 0 0 0 0 0 0 0 0 0 0 0 0 0 0 0 0 0 0 0 0 0 0 0 0 0 0 0 0 0 0 0 0 0 0 0 0 0 0 0 0 0
0 0 0 0 0 0 0 0 0 0 0 0 0 0 0 0 0 0 0 0 0 0 0 0 0 0 0 0 0 0 0 0 0 0 0 0 0 0 0 0 0 0 0 0 0 0 0 0 0
0 0 0 0 0 0 0 0 0 0 0 0 0 0 0 0 0 0 0 0 0 0 0 0 0 0 0 0 0 0 0 0 0 0 0 0 0 0 0 0 0 0 0 0 0 0 0 0 0
0 0 0 0 0 0 0 0 0 0 0 0 0 0 0 0 0 0 0 0 0 0 0 0 0 0 0 0 0 0 0 0 0 0 0 0 0 0 0 0 0 0 0 0 0 0 0 0 0
0 0 0 0 0 0 0 0 0 0 0 0 0 0 0 0 0 0 0 0 0 0 0 0 0 0 0 0 0 0 0 0 0 0 0 0 0 0 0 0 0 0 0 0 0 0 0 0 0
0 0 0 0 0 0 0 0 0 0 0 0 0 0 0 0 0 0 0 0 0 0 0 0 0 0 0 0 0 0 0 0 0 0 0 0 0 0 0 0 0 0 0 0 0 0 0 0 0
0 0 0 0 0 0 0 0 0 0 0 0 0 0 0 0 0 0 0 0 0 0 0 0 0 0 0 0 0 0 0 0 0 0 0 0 0 0 0 0 0 0 0 0 0 0 0 0 0
0 0 0 0 0 0 0 0 0 0 0 0 0 0 0 0 0 0 0 0 0 0 0 0 0 0 0 0 0 0 0 0 0 0 0 0 0 0 0 0 0 0 0 0 0 0 0 0 0
0 0 0 0 0 0 0 0 0 0 0 0 0 0 0 0 0 0 0 0 0 0 0 0 0 0 0 0 0 0 0 0 0 0 0 0 0 0 0 0 0 0 0 0 0 0 0 0 0
0 0 0 0 0 0 0 0 0 0 0 0 0 0 0 0 0 0 0 0 0 0 0 0 0 0 0 0 0 0 0 0 0 0 0 0 0 0 0 0 0 0 0 0 0 0 0 0 0
0 0 0 0 0 0 0 0 0 0 0 0 0 0 0 0 0 0 0 0 0 0 0 0 0 0 0 0 0 0 0 0 0 0 0 0 0 0 0 0 0 0 0 0 0 0 0 0 0
0 0 0 0 0 0 0 0 0 0 0 0 0 0 0 0 0 0 0 0 0 0 0 0 0 0 0 0 0 0 0 0 0 0 0 0 0 0 0 0 0 0 0 0 0 0 0 0 0
0 0 0 0 0 0 0 0 0 0 0 0 0 0 0 0 0 0 0 0 0 0 0 0 0 0 0 0 0 0 0 0 0 0 0 0 0 0 0 0 0 0 0 0 0 0 0 0 0
0 0 0 0 0 0 0 0 0 0 0 0 0 0 0 0 0 0 0 0 0 0 0 0 0 0 0 0 0 0 0 0 0 0 0 0 0 0 0 0 0 0 0 0 0 0 0 0 0
0 0 0 0 0 0 0 0 0 0 0 0 0 0 0 0 0 0 0 0 0 0 0 0 0 0 0 0 0 0 0 0 0 0 0 0 0 0 0 0 0 0 0 0 0 0 0 0 0
0 0 0 0 0 0 0 0 0 0 0 0 0 0 0 0 0 0 0 0 0 0 0 0 0 0 0 0 0 0 0 0 0 0 0 0 0 0 0 0 0 0 0 0 0 0 0 0 0
0 0 0 0 0 0 0 0 0 0 0 0 0 0 0 0 0 0 0 0 0 0 0 0 0 0 0 0 0 0 0 0 0 0 0 0 0 0 0 0 0 0 0 0 0 0 0 0 0
0 0 0 0 0 0 0 0 0 0 0 0 0 0 0 0 0 0 0 0 0 0 0 0 0 0 0 0 0 0 0 0 0 0 0 0 0 0 0 0 0 0 0 0 0 0 0 0 0
Wind_Speed
2 3 3 4 6 3 4 6 3 3 3 2 2 5 7 6 6 4 1 3 6 7 7 9 12 12 13 13 13 13 13 13 14 14 14 14 13 13 13 13 12 12 12 12 12 11 11 11 11
1 2 4 5 5 2 6 5 5 5 4 3 2 3 4 1 0 3 2 3 7 8 7 8 12 12 13 13 13 13 13 13 13 13 13 13 13 13 13 13 12 12 12 12 11 11 11 11 10
2 3 4 5 4 7 6 5 6 2 2 2 3 2 3 2 2 3 3 6 7 7 6 8 13 13 12 13 13 13 13 12 12 12 13 13 13 12 12 12 12 11 11 11 11 11 10 10 10
3 4 4 3 6 6 5 2 2 2 1 1 3 2 1 1 2 3 5 7 8 6 6 8 12 13 12 12 12 12 12 12 12 12 12 12 12 12 11 11 11 11 11 10 10 10 9 9 9
3 4 3 2 6 5 4 3 2 1 2 1 4 3 1 4 2 6 7 8 8 6 5 7 12 13 12 12 12 12 11 11 11 11 11 11 11 11 10 10 10 10 10 9 9 9 8 8 8
4 4 4 5 6 4 4 3 2 2 2 2 4 4 0 2 4 6 7 7 6 6 5 6 11 12 11 11 11 11 11 11 10 10 10 10 10 10 10 10 9 9 9 8 8 8 7 7 7
4 4 5 5 4 4 3 2 3 3 3 4 5 5 1 1 3 6 7 7 6 6 6 5 6 7 10 10 10 10 10 10 10 10 10 9 9 9 9 9 9 8 8 8 7 7 7 6 6
4 4 4 4 4 5 2 2 2 4 4 2 5 7 6 5 5 7 7 7 6 5 5 5 5 5 5 5 9 9 9 9 10 10 9 9 8 8 8 7 8 8 7 7 7 7 6 6 6
3 3 5 7 7 4 1 2 0 1 4 2 1 3 3 9 9 9 7 5 5 5 4 4 5 5 5 5 6 7 8 8 8 7 9 7 4 4 4 6 7 7 7 6 6 6 6 6 5
4 5 8 4 4 2 1 2 2 3 2 2 1 2 6 10 11 11 9 8 7 5 4 4 5 5 5 4 4 3 4 4 4 4 4 3 3 3 4 6 7 6 6 5 5 5 5 4 2
5 7 4 3 2 1 1 0 1 5 3 5 6 7 10 10 10 10 9 8 6 5 4 4 4 4 5 4 3 2 2 3 3 4 4 3 3 3 3 2 3 3 4 2 3 2 2 1 1
4 4 3 2 1 0 1 1 0 2 3 1 4 9 12 12 11 11 10 8 6 6 5 4 4 4 4 4 3 3 2 2 2 2 3 3 2 2 2 2 2 2 1 1 1 1 1 1 1
4 3 2 2 1 1 0 1 1 3 2 2 6 8 11 11 9 6 6 6 6 5 5 4 4 5 4 4 3 3 2 2 2 2 2 3 3 2 2 1 1 1 1 1 1 1 1 1 1
4 3 2 2 2 1 2 2 1 4 1 3 5 7 8 9 8 6 6 7 7 6 6 5 5 4 4 3 3 3 2 2 2 2 2 3 2 2 2 1 1 1 1 1 1 1 1 1 1
3 2 2 3 3 2 2 5 6 4 2 3 4 5 6 6 6 8 9 8 8 7 6 5 5 5 4 4 3 3 2 2 2 2 2 2 2 2 2 1 1 0 0 1 1 1 1 1 1
4 3 4 4 4 3 5 9 5 2 5 4 4 4 5 5 6 6 6 6 6 6 6 5 5 5 4 4 3 2 2 2 2 1 1 2 2 2 2 1 0 0 0 1 1 1 1 1 1
3 5 6 3 4 4 6 7 4 1 4 4 4 4 5 4 4 5 5 6 6 7 7 6 5 5 4 4 3 2 2 2 1 1 1 1 2 2 2 1 1 1 1 0 0 0 0 1 1
7 5 5 6 3 4 5 7 5 2 3 4 4 4 5 6 7 5 5 6 6 6 6 6 5 5 4 3 3 2 2 1 1 1 1 2 2 2 2 1 1 1 1 0 0 0 0 0 1
6 6 5 4 2 4 6 8 8 4 3 4 4 5 6 7 5 3 4 5 5 5 6 6 6 5 5 3 2 2 1 0 0 0 0 1 1 2 2 1 1 1 1 1 1 1 0 1 1
5 5 4 1 1 3 4 7 6 5 5 6 7 7 7 5 3 3 4 4 6 7 7 7 6 6 5 3 2 2 2 1 1 0 0 0 0 1 2 2 1 1 1 1 1 1 1 0 1
5 7 6 3 1 1 1 6 5 4 3 3 3 4 5 7 7 5 5 5 6 7 8 8 7 6 5 4 3 3 2 2 1 1 1 1 0 1 1 2 1 1 2 2 2 2 2 1 1
6 5 5 4 3 2 1 5 6 3 3 4 4 4 5 5 4 5 5 6 7 7 7 7 7 6 6 6 5 5 3 2 2 1 1 1 1 1 1 1 2 2 2 2 2 2 2 2 1
4 4 5 4 3 1 1 3 8 1 4 6 5 5 4 4 5 5 6 7 6 6 6 6 6 6 5 6 6 5 3 2 1 1 0 0 1 1 1 1 1 2 2 2 2 2 2 2 2
6 6 5 4 3 4 6 6 8 4 6 5 4 4 3 3 3 3 3 3 3 3 4 5 6 5 5 5 5 5 5 4 3 1 1 0 1 1 1 1 1 1 2 2 2 2 2 3 3
5 7 3 1 2 7 4 5 9 5 4 4 5 4 3 2 1 2 3 4 4 4 5 5 6 5 4 4 4 4 5 5 4 3 2 1 1 1 2 1 1 1 2 2 2 2 2 3 3
6 7 7 7 6 3 3 7 8 3 2 2 1 1 1 1 1 2 2 3 4 4 5 5 6 5 5 4 4 3 4 3 2 2 2 2 1 2 2 2 2 2 2 2 2 2 3 2 3
6 4 4 5 2 2 5 5 7 1 2 2 2 3 2 2 2 2 2 2 2 3 4 5 5 4 4 4 3 3 3 3 2 2 1 1 1 1 1 1 2 2 2 2 2 2 3 3 3
4 6 4 5 5 4 3 4 5 2 2 1 1 1 2 2 3 2 2 2 2 2 3 3 4 4 3 3 3 2 2 2 2 2 1 1 1 1 1 1 2 2 2 2 2 2 3 3 3
4 3 3 3 4 5 3 6 2 3 2 2 1 1 2 2 2 2 3 3 3 3 4 4 4 4 3 2 2 2 2 2 2 1 1 1 1 1 1 1 2 2 2 2 2 3 3 3 4
3 5 5 5 3 3 3 5 3 1 0 2 2 2 2 3 3 3 4 4 4 4 4 4 3 3 2 2 2 2 2 2 1 0 0 0 1 1 2 2 2 2 2 2 3 3 3 3 4
Wind_Direction
35 61 74 61 61 62 232 238 224 222 213 209 156 144 154 158 164 181 150 142 134 138 144 143 139 136 132 127 123 119 116 113 113 112 111 110 107 105 103 102 100 97 96 94 92 91 90 89 88
106 89 62 68 105 184 250 234 221 216 183 134 86 96 109 143 85 117 140 148 135 135 136 139 138 135 131 129 127 123 118 115 114 113 111 111 108 105 102 100 99 96 93 91 91 88 87 86 86
118 67 92 96 153 193 225 222 219 235 183 135 100 76 125 160 160 161 169 144 127 126 131 138 135 134 131 129 128 124 121 118 116 114 112 111 110 107 104 101 99 97 93 92 90 87 86 85 85
101 63 65 113 211 222 224 238 182 154 119 100 125 98 81 10 179 168 139 131 123 120 126 137 135 134 131 130 127 123 121 119 118 115 114 113 111 109 105 102 100 98 96 93 90 86 85 83 84
68 93 109 209 231 241 240 249 203 160 155 129 133 130 58 347 79 122 128 126 124 118 123 136 134 133 130 129 127 124 121 119 119 117 116 114 111 108 105 101 100 98 98 96 92 88 85 84 81
77 90 141 214 234 250 252 229 187 169 154 138 134 127 146 355 117 126 124 120 119 119 115 127 129 129 128 126 124 123 121 118 117 117 116 116 113 110 107 103 100 97 94 92 91 88 84 83 80
126 133 182 199 217 243 235 192 174 169 176 190 157 129 160 177 141 122 115 108 104 106 105 104 113 120 124 124 122 120 118 116 115 113 111 110 110 110 107 103 100 98 95 92 87 83 80 80 78
141 131 175 201 201 230 224 168 169 169 188 163 143 150 187 186 142 115 106 99 98 93 98 102 100 102 106 112 116 114 114 112 111 108 104 101 99 102 102 101 98 98 95 91 85 80 75 74 70
111 120 200 207 194 219 198 156 65 119 123 120 157 182 182 139 136 124 117 110 113 106 97 105 106 102 101 104 108 105 106 106 104 102 99 91 79 81 86 90 91 95 93 90 84 77 71 66 60
137 188 215 209 194 194 186 161 161 116 115 129 83 52 114 137 146 147 152 155 152 146 129 114 115 113 106 100 91 82 83 88 87 87 90 84 80 79 79 78 81 84 82 80 77 71 66 60 46
174 202 214 231 223 185 172 181 146 136 189 200 182 162 146 152 157 161 165 165 162 153 139 125 124 118 112 108 102 86 81 81 83 91 93 91 82 76 68 68 63 62 65 63 58 56 50 55 49
182 221 209 225 203 147 179 139 85 187 218 203 168 156 156 164 172 174 172 167 155 149 143 133 125 119 113 112 109 105 100 98 98 100 106 105 95 84 80 75 63 59 58 66 61 64 50 51 43
204 220 217 244 300 281 281 234 225 258 276 87 118 146 165 175 179 176 162 153 151 156 152 146 132 127 123 114 118 112 112 115 116 110 109 115 115 110 98 87 78 69 63 71 64 58 41 34 18
198 208 240 250 241 251 216 265 217 254 179 112 138 165 178 181 176 163 163 168 170 168 164 153 142 136 128 124 124 124 120 117 112 113 117 118 122 124 118 105 90 78 73 71 82 57 26 356 357
158 166 274 242 203 212 157 274 235 229 150 149 169 181 187 189 180 183 183 180 178 173 164 158 152 138 133 131 133 128 131 125 124 127 125 122 123 130 131 126 118 112 94 81 63 35 31 15 4
134 159 229 243 188 189 165 248 254 201 165 191 198 196 196 201 198 197 188 180 172 165 163 164 157 146 143 139 135 130 134 134 138 137 134 136 136 135 129 133 161 169 117 101 88 54 29 360 349
159 197 210 241 194 168 184 238 255 187 175 206 212 209 208 211 213 205 192 181 173 170 165 164 156 152 149 139 129 127 128 131 141 139 143 151 142 139 138 148 169 135 124 124 107 51 74 325 330
188 188 191 205 204 167 205 241 265 259 192 220 225 222 217 213 219 203 192 182 171 165 162 160 151 147 137 121 104 93 91 86 102 142 166 160 157 150 145 156 151 126 121 143 173 188 318 261 297
154 162 190 211 196 177 219 245 256 259 222 230 232 226 224 225 226 199 185 172 161 159 162 163 156 152 141 132 135 131 142 136 56 231 181 174 173 166 162 169 166 158 169 202 202 188 178 325 342
161 169 187 222 154 184 238 261 258 245 223 215 214 221 223 224 217 197 180 168 172 176 174 170 168 164 165 160 149 144 144 156 174 134 43 133 191 186 180 180 189 187 180 190 190 159 169 276 51
197 186 183 174 52 37 318 291 262 256 234 235 227 223 221 212 210 198 184 183 178 181 182 179 175 169 163 146 120 96 81 66 59 7 322 306 276 236 198 192 189 195 185 207 215 191 178 203 254
218 191 166 153 130 262 163 273 278 256 263 250 246 237 235 229 214 200 188 185 189 192 183 176 171 164 159 151 150 150 157 178 203 205 240 294 302 293 243 208 199 202 206 217 220 196 194 179 221
174 145 144 147 144 239 206 227 277 270 251 252 245 240 242 234 213 203 196 192 191 184 174 170 162 159 158 160 161 158 155 162 155 148 147 330 335 332 315 244 213 216 218 223 224 212 206 199 202
128 91 74 66 103 235 210 194 268 230 223 248 249 246 251 245 220 203 189 162 154 153 156 155 152 156 158 158 159 159 158 156 149 149 165 282 320 323 323 300 252 239 229 226 228 224 221 220 215
130 119 104 112 206 239 192 199 249 245 233 227 240 245 251 238 186 153 147 150 149 151 154 153 152 154 157 156 160 163 163 165 171 176 185 204 265 289 294 306 286 270 253 240 227 224 233 226 223
171 154 163 182 201 244 189 223 251 261 282 264 230 164 66 50 100 135 149 154 156 154 151 152 155 153 156 157 158 151 153 160 173 181 184 199 223 250 263 278 279 277 269 267 249 236 237 231 230
151 181 149 126 120 178 237 271 294 315 356 20 58 66 59 54 68 91 97 104 126 136 147 153 150 145 150 149 139 139 148 157 165 170 167 192 229 250 265 280 281 277 273 262 253 250 249 239 235
143 142 124 140 159 214 252 249 246 259 290 342 34 50 42 47 57 63 68 68 80 102 108 113 125 134 136 133 141 138 148 156 155 145 157 207 255 267 276 293 291 287 276 260 250 255 257 249 249
116 130 139 144 163 166 214 258 245 233 230 213 194 106 74 61 65 62 56 55 68 76 88 98 104 107 112 117 119 117 122 118 118 126 182 231 261 264 262 266 273 276 274 264 258 259 260 260 263
144 158 149 161 200 177 178 262 327 288 223 131 98 75 67 63 60 60 60 58 65 70 73 83 92 97 103 108 106 105 102 98 98 103 278 285 289 284 270 269 273 278 283 273 259 265 268 261 267